Regional Weather Roundup
Issued by NWS

Home | Current Version | Previous Version | Graphics & Text | Print | Product List | Glossary On
Versions: 1 2 3 4 5 6 7 8 9 10 11 12 13 14 15 16 17 18 19 20 21 22 23 24 25 26 27 28 29 30 31 32 33 34 35 36 37 38 39 40 41 42 43 44 45 46 47 48 49 50
000
ASUS43 KMKX 212111
RWRWI

WISCONSIN REGIONAL WEATHER ROUNDUP
NATIONAL WEATHER SERVICE MILWAUKEE/SULLIVAN WI
400 PM CDT FRI JUL 21 2017

NOTE: "FAIR" INDICATES FEW OR NO CLOUDS BELOW 12,000 FEET WITH NO
SIGNIFICANT WEATHER AND/OR OBSTRUCTIONS TO VISIBILITY.

WIZ001-002-006>008-014>016-023>028-212200-
NORTHWEST WISCONSIN

CITY           SKY/WX    TMP DP  RH WIND       PRES   REMARKS
SUPERIOR ARPT  NOT AVBL
ASHLAND        MOSUNNY   75  67  76 N10       29.88F
HAYWARD        MOSUNNY   82  66  58 S14       29.88F HX  84
SIREN          CLOUDY    79  66  64 S7        29.87S HX  81
CUMBERLAND     CLOUDY    72  66  83 S7        29.89R
RICE LAKE      PTSUNNY   75  67  77 SE7       29.90S
CHETEK         CLOUDY    75  69  82 CALM      29.89S
LADYSMITH      CLOUDY    79  68  68 S9        29.91F HX  81
EAU CLAIRE       N/A     78  68  71 S15       29.87F HX  80
MENOMONIE      CLOUDY    78  69  74 S9        29.88S
NEW RICHMOND   CLOUDY    77  70  78 SE8       29.87R
OSCEOLA        CLOUDY    80  70  72 S7        29.89S HX  82
$$

WIZ003>005-009-010-017-018-212200-
NORTH CENTRAL WISCONSIN

CITY           SKY/WX    TMP DP  RH WIND       PRES   REMARKS
MANITOWISH WTR PTSUNNY   82  65  56 SE6       29.92F HX  83
ARBOR VITAE    CLOUDY    82  64  53 S6        29.93S HX  84
WOODRUFF       CLOUDY    82  64  53 S6        29.93S HX  84
RHINELANDER    CLOUDY    81  64  56 S6        29.95F HX  82
EAGLE RIVER    CLOUDY    82  60  46 CALM      29.94F HX  83
LAND O LAKES   CLOUDY    83  59  44 SW3       29.95F HX  83
PHILLIPS       MOSUNNY   80  67  65 S9        29.91F HX  82
TOMAHAWK         N/A     79  65  62 CALM      29.93F HX  81
MEDFORD        PTSUNNY   76  68  75 S8        29.93F
MERRILL        CLOUDY    79  68  68 S7        29.94F HX  81
$$

WIZ029-030-035-036-043>047-212200-
CENTRAL WISCONSIN

CITY           SKY/WX    TMP DP  RH WIND       PRES   REMARKS
WAUSAU         CLOUDY    78  68  71 S12       29.92F HX  80
MOSINEE        CLOUDY    75  70  83 S8        29.95F
MARSHFIELD     LGT RAIN  74  70  87 S5        29.92F
STEVENS POINT  LGT RAIN  72  71  95 S8        29.94F
WAUPACA        DRIZZLE   78  70  76 S7        29.94F HX  80
WAUTOMA        CLOUDY    75  72  88 SE5       29.95F
WISC RAPIDS    LGT RAIN  74  72  93 S6        29.93F
CAMP DOUGLAS   LGT RAIN  72  72  99 SE6       29.93F
$$

WIZ011>013-019>022-031-037>040-048>050-212200-
NORTHEAST WISCONSIN

CITY           SKY/WX    TMP DP  RH WIND       PRES   REMARKS
ANTIGO         PTSUNNY   77  66  68 S7        29.96F
SHAWANO        CLOUDY    82  67  60 S7        29.94F HX  84
OCONTO         CLOUDY    82  65  55 SW8       29.93F HX  84
STURGEON BAY     N/A     83  68  60 SW8       29.95S HX  86
GREEN BAY      LGT RAIN  77  73  87 CALM      29.93F
MANITOWOC      LGT RAIN  80  68  66 S5        29.95F HX  83
APPLETON       CLOUDY    79  66  65 SW5       29.94F HX  81
CLINTONVILLE   CLOUDY    79  66  65 SW6       29.94F HX  81
OSHKOSH        LGT RAIN  77  70  79 S7        29.94F
$$

WIZ032>034-041-042-053>061-212200-
SOUTHWEST WISCONSIN

CITY           SKY/WX    TMP DP  RH WIND       PRES   REMARKS
LA CROSSE      LGT RAIN  74  71  91 SE7       29.91S
SPARTA         LGT RAIN  69  68  98 E5        29.92F
VIROQUA        CLOUDY    70  70 100 SE6       29.94F
BOSCOBEL       LGT RAIN  73  71  93 CALM      29.93F FOG
PRAIRIE DU CHI PTSUNNY   70  69  96 SE3       29.93S
PLATTEVILLE      N/A     75  74  96 E8        29.92F
$$

WIZ056-057-062-063-064-067-068-212200-
SOUTH CENTRAL WISCONSIN

CITY           SKY/WX    TMP DP  RH WIND       PRES   REMARKS
REEDSBURG      RAIN      72  72 100 N7        29.94S
BARABOO/DELLS  LGT RAIN  73  71  92 N6        29.94S
LONE ROCK      TSTM      73  71  93 W8        29.96R VSB 3/4
MINERAL POINT  CLOUDY    73  73 100 E6        29.93F
MADISON        RAIN      75  74  96 NE7       29.93R FOG
MIDDLETON      CLOUDY    75  75 100 E5        29.93R
WATERTOWN      LGT RAIN  74  74 100 E13       29.91F
MONROE         CLOUDY    73  70  88 SE6       29.93S
JANESVILLE     CLOUDY    79  79 100 SE9       29.93F HX  83
$$

WIZ051-052-058>065-066-070>072-212200-
SOUTHEAST WISCONSIN

CITY           SKY/WX    TMP DP  RH WIND       PRES   REMARKS
MILWAUKEE      LGT RAIN  78  71  79 CALM      29.97R HX  80
WAUKESHA       LGT RAIN  75  72  88 NW6       30.00R
MILWAUKEE/TIMM LGT RAIN  79  68  69 W3        29.98R HX  81
RACINE         CLOUDY    76  72  87 E6        29.97S
KENOSHA        CLOUDY    79  64  60 SE8       29.96S HX  81
FOND DU LAC    LGT RAIN  77  69  76 S8        29.95F
SHEBOYGAN      LGT RAIN  79  72  79 SW5       29.97F HX  82
WEST BEND      LGT RAIN  73  72  94 CALM      29.98F
JUNEAU         RAIN      74  72  92 E5        29.96F
$$

LSZ147-162-212200-
LAKE SUPERIOR

STATION/POSITION TIME  TEMP    WIND        PRES    WAVE
                       AIR SEA DIR/SP/G            HT/PER
                 (UTC) (F)     (DEG/KT/KT) (MB)    (FT/S)
W MID LAKE BUOY  2050   53 49   40/  8/ 10 1013.1F   0
DEVILS ISLAND    2000   63      70/ 12/ 13 1012.7F
PORT WING        1900   64      30/ 14/ 17 1012.9
SAXON HARBOR     2030   69     310/  3/  4 1012.2S
$$

LMZ867-665-643>646-212200-
LAKE MICHIGAN

STATION/POSITION TIME  TEMP    WIND        PRES    WAVE
                       AIR SEA DIR/SP/G            HT/PER
                 (UTC) (F)     (DEG/KT/KT) (MB)    (FT/S)
CHAMBERS ISLAND  2040   83     180/  5/ 10 1012.9F
S GREEN BAY BUOY 2100   79 76  210/  6/  6 1013.6
N MID LAKE BUOY  2050   69 68  170/ 10/ 12 1014.4F   1
NORTHPORT PIER   2040   73     150/  9/ 10 1013.5F
KEWAUNEE LAKESHO 2048   72     180/  7/  8 1013.7S
SHEBOYGAN LAKESH 2100   76     160/  8/  8 1014.0F
PORT WASHINGTON  2030   74     150/  1/  3 1015.6S
ATWATER BUOY     1909   72 69  190/  8/ 10 1015.5R
MILWAUKEE LAKESH 2030   71     150/  9/  9   N/A
S MID LAKE BUOY  2050   74 74  210/  2/  2 1014.5F   0
KENOSHA   LAKESH 2100   73      CALM  /  2 1013.9
$$

TC  - TEMPERATURE IN CELSIUS
VSB - VISIBILITY IN STATUTE MILES
WCI - WIND CHILL INDEX
HX  - HEAT INDEX





USA.gov is the U.S. government's official web portal to all federal, state and local government web resources and services.